DMSP 5D-2 F13 DEB, 40509

Orbit data source: Space-Track

DMSP 5D-2 F13 DEB, 40509 is space debris in SSO originally from a launch on Fri, 24 Mar 1995 UTC launched from the Air Force Western Test Range (AFWTR). Debris objects in space refer to the collection of defunct objects orbiting the Earth. Examples of debris include non-operational satellites, rocket bodies, and fragments generated from explosions, collisions, or faulty payload assembly.

Loading next visibility...
Identifier
40509, 1995-015CV
Orbit
SSO
Country
Flag of USUS
Related business
Manufacturer
Unknown
Mission
Spacecraft
Bus & Motor
Unknown
Mass
Unknown
Launch date (UTC)
1995-03-24 (31 years ago)
Launch vehicle
Unknown
Launch site
Air Force Western Test Range (AFWTR)
Object type
Payload
Rocket body
Debris
Shape & HBR
Unknown shape, 0.1 m
Radar Cross Section
Small (<0.1 m²)

Expand to show TLE details & history
Last TLE update: 5 days ago

TLE from 5 days ago
0 DMSP 5D-2 F13 DEB
1 40509U 95015CV  25297.00967309  .00000738  00000-0  34857-3 0  9995
2 40509  98.6595 312.4064 0022545 302.3999  57.4998 14.22614161549069
Epoch: 2025-10-24T00:13Z
TLE epoch observation values (Epoch: 2025-10-24T00:13:55.754Z)
Latitude
-0.00003°
Longitude
-83.73663°
Altitude
810.754 km
Speed
7.452 km/s
True Right ascension
20h 49m 37s
True Declination
0° 00' 00"
Sunlit
Object was in daylight at epoch
Visualization orbit readout
Latitude
Unknown
Longitude
Unknown
Altitude
Unknown
Speed
Unknown
Apparent Right ascension
Unknown
Apparent Declination
Unknown
Sunlit
N/A
Visualization observer readout
Local Sidereal Time
14:59:59
Azimuth
Unknown
Elevation
Unknown
Doppler factor
Unknown
Orbital elements
Apogee altitude
829.892 km
Perigee altitude
797.464 km
Semi-major axis
7,191.815 km
Eccentricity
0.00225
Inclination
98.6595°
RAAN
312.4064°
Arg. of periapsis
302.3999°
True anomaly
57.71802°
Mean anomaly
57.4998°
Eccentric anomaly
57.60888°
Mean motion
3.55865 °/min
Orbital period
101.16 mins
BSTAR
0.00034857
Loading maneuver chart data...
Computing Atmospheric mass density...

Documentation

Showing up to 5 results
|